Regional Weather Roundup
Issued by NWS

Home | Current Version | Previous Version | Text Only | Print | Product List | Glossary Off
Versions: 1 2 3 4 5 6 7 8 9 10 11 12 13 14 15 16 17 18 19 20 21 22 23 24 25 26 27 28 29 30 31 32 33 34 35 36 37 38 39 40 41 42 43 44 45 46 47 48 49 50

000
ASUS43 KDMX 251107
RWRIA

WEATHER ROUNDUP FOR IOWA
NATIONAL WEATHER SERVICE DES MOINES IA
500 AM CST TUE NOV 25 2014

NOTE: "FAIR" INDICATES FEW OR NO CLOUDS BELOW 12,000 FEET WITH NO
SIGNIFICANT WEATHER AND/OR OBSTRUCTIONS TO VISIBILITY.

* - THESE STATIONS ARE NOT NWS STATIONS...THUS NOT UNDER NWS
QUALITY CONTROL.  THEY ALSO DO NOT REPORT WEATHER SUCH
AS PRECIPITATION OR FOG.

IAZ001>003-012>014-020>022-031>034-043>046-251200-
   NORTHWEST IOWA

CITY           SKY/WX    TMP DP  RH WIND       PRES   REMARKS
CARROLL *      CLEAR     16   9  73 W8        30.09R WCI   5
CHEROKEE *     CLEAR     14   9  79 SW3       30.09S
DENISON *      CLEAR     16   7  67 CALM      30.09S
LE MARS *      CLEAR     14   9  79 CALM      30.10S
ORANGE CITY *  CLEAR     10   5  79 W5        30.06S WCI   2
SHELDON *      PTCLDY    12   5  73 W8        30.05S WCI   1
SIOUX CITY     CLEAR     16   6  65 W5        30.12S WCI   9
SPENCER        CLEAR     11   5  77 W7        30.06R WCI   0
STORM LAKE *   CLEAR     12   7  79 W10       30.07S WCI  -1
$$

IAZ055>058-069>071-079>083-090>094-251200-
   SOUTHWEST IOWA

CITY           SKY/WX    TMP DP  RH WIND       PRES   REMARKS
ATLANTIC *     CLEAR     18   9  68 NW5       30.11S WCI  11
AUDUBON *      CLEAR     18   7  62 W6        30.09S WCI   9
CLARINDA *     CLEAR     18  10  73 CALM      30.16S
COUNCIL BLFS * CLEAR     19   7  58 W10       30.11S WCI   8
CRESTON *      CLEAR     16  10  79 NW8       30.10R WCI   5
HARLAN  *      CLEAR     18   9  68 N3        30.14S
LAMONI         CLEAR     17  13  84 W5        30.10R WCI  10
RED OAK *      CLEAR     18  10  73 W6        30.14R WCI   9
SHENANDOAH *   CLEAR     18   9  68 W7        30.17R WCI   8
$$

IAZ047>049-059>061-072>074-084-251200-
   CENTRAL IOWA

CITY           SKY/WX    TMP DP  RH WIND       PRES   REMARKS
AMES           CLEAR     17  11  77 NW9       30.08R WCI   6
ANKENY *       CLEAR     19  12  73 NW12      30.09S WCI   7
CHARITON *     CLEAR     19  14  79 NW7       30.09R WCI  10
DES MOINES     PTCLDY    19  13  77 NW9       30.10R WCI   8
GRINNELL*      CLOUDY    19  16  86 NW17      30.07R WCI   4
KNOXVILLE *    CLEAR     19  14  79 NW10      30.08R WCI   8
MARSHALLTOWN   CLEAR     15  11  83 NW9       30.06R WCI   3
PELLA *        CLEAR     19  15  82 NW10G17   30.10R WCI   8
PERRY *          N/A     18  14  82 NW7       30.10R WCI   9
$$

IAZ004>006-015-016-023>025-035-036-251200-
   NORTH CENTRAL IOWA

CITY           SKY/WX    TMP DP  RH WIND       PRES   REMARKS
ALGONA *       CLEAR     14   9  79 NW10      30.05S WCI   1
CLARION *      CLEAR     14  10  85 NW9       30.05R WCI   2
ESTHERVILLE    CLEAR     11   5  77 NW9       30.04R WCI  -2
FORT DODGE *   CLEAR     16   9  73 W6        30.07S WCI   7
MASON CITY     CLEAR     11   8  88 W10       30.04R WCI  -3
FOREST CITY *    N/A     14  10  85 W5        30.03R WCI   6
IOWA FALLS *     N/A     14  10  84 W10       30.06R WCI   2
$$

IAZ007>011-017>019-026>030-037>042-050>054-066-251200-
   NORTHEAST IOWA

CITY           SKY/WX    TMP DP  RH WIND       PRES   REMARKS
CEDAR RAPIDS   CLOUDY    17  13  84 NW13      30.04R WCI   4
CHARLES CITY * PTCLDY    10   5  79 W6        30.03R WCI   1
CLINTON *      CLOUDY    18  10  73 W17       30.04R WCI   2
DECORAH *      CLOUDY    16  10  79 W7G15     29.98R WCI   6
DUBUQUE        PTCLDY    14  11  87 W12       29.97R WCI   0
MONTICELLO *   CLOUDY    18  12  79 W14       30.02R WCI   4
OELWEIN *      FLURRIES  14   9  79 NW16      30.03R WCI  -2
WATERLOO       FLURRIES  14  10  84 NW8       30.05R WCI   3
$$

IAZ064-065-067-068-078-251200-
   EAST CENTRAL IOWA

CITY           SKY/WX    TMP DP  RH WIND       PRES   REMARKS
DAVENPORT      CLOUDY    18  11  74 W14       30.03R WCI   4
MT. PLEASANT * CLOUDY    23  18  80 NW8       30.08R WCI  14
MUSCATINE *    CLEAR     18  12  79 W12       30.09R WCI   5
QUAD CITIES    CLOUDY    20  13  74 W15G23    30.04R WCI   6
$$

IAZ062-063-075>077-085>089-095>099-251200-
   SOUTHEAST IOWA

CITY           SKY/WX    TMP DP  RH WIND       PRES   REMARKS
BURLINGTON     CLOUDY    23  18  81 NW9       30.07R WCI  13
FAIRFIELD *    CLOUDY    23  18  80 NW13G18   30.08R WCI  11
FORT MADISON * CLOUDY    27  21  80 NW8       30.07R WCI  18
KEOKUK *       CLOUDY    27  21  80 NW9       30.07R WCI  17
OSKALOOSA *    CLOUDY    21  16  79 NW15      30.09R WCI   8
CENTERVILLE *    N/A     19  16  86 W7        30.10R WCI  10
OTTUMWA        MOCLDY    21  14  74 NW14      30.08R WCI   8
WASHINGTON *   CLOUDY    21  19  93 NW9       30.08R WCI  11
$$

ABBREVIATIONS USED IN REMARKS
   TC - TEMPERATURES IN CELSIUS
  WCI - WIND CHILL INDEX
   HX - HEAT INDEX
  VSB - VISIBILITY
$$




USA.gov is the U.S. government's official web portal to all federal, state and local government web resources and services.